GW2878 Weather Reports


time (UTC)temp
C
wind
direction
speed
KPH
gust
KPH
rain 1hr
cm
rain 24hr
cm
rain mn
cm
humidity
%
barometer
mb
20260505184437 5 10 14.5 22.5 0.00 0.00 0.00 55 1008.7
20260505183933 5 37 14.5 17.7 0.00 0.00 0.00 55 1008.7
20260505183431 5 15 17.7 25.7 0.00 0.00 0.00 55 1008.8
20260505182927 5 39 20.9 22.5 0.00 0.00 0.00 55 1008.4
20260505182425 5 35 14.5 22.5 0.00 0.00 0.00 55 1008.8
20260505181920 5 7 6.4 11.3 0.00 0.00 0.00 56 1008.7
20260505181418 5 28 11.3 14.5 0.00 0.00 0.00 57 1008.6
20260505180915 5 70 16.1 20.9 0.00 0.00 0.00 57 1008.8
20260505180411 5 62 16.1 20.9 0.00 0.00 0.00 56 1008.9
20260505175908 5 18 8.0 14.5 0.00 0.00 0.00 57 1008.9
20260505175404 5 42 9.7 11.3 0.00 0.00 0.00 56 1009.1
20260505174901 5 16 9.7 12.9 0.00 0.00 0.00 55 1008.9
20260505174358 5 27 4.8 11.3 0.00 0.00 0.00 57 1008.9
20260505173854 5 28 11.3 12.9 0.00 0.00 0.00 56 1008.7
20260505173351 5 56 9.7 14.5 0.00 0.00 0.00 57 1008.9
20260505172848 5 359 9.7 14.5 0.00 0.00 0.00 57 1009.1
20260505172346 5 27 9.7 14.5 0.00 0.00 0.00 57 1009.2
20260505171845 5 16 8.0 14.5 0.00 0.00 0.00 55 1009.2
20260505171342 5 80 6.4 11.3 0.00 0.00 0.00 53 1008.8
20260505170839 5 48 14.5 16.1 0.00 0.00 0.00 54 1008.9
20260505170336 5 33 3.2 6.4 0.00 0.00 0.00 55 1008.9
20260505165831 5 44 4.8 6.4 0.00 0.00 0.00 52 1008.8
20260505165327 5 77 6.4 11.3 0.00 0.00 0.00 53 1008.9
20260505164822 5 36 1.6 4.8 0.00 0.00 0.00 62 1008.9
20260505164320 5 8 0.0 1.6 0.00 0.00 0.00 63 1009.1
20260505163818 5 50 6.4 9.7 0.00 0.00 0.00 62 1009.1
20260505163316 5 89 3.2 6.4 0.00 0.00 0.00 63 1009.1
20260505162814 5 141 3.2 6.4 0.00 0.00 0.00 65 1009.2
20260505162310 5 64 3.2 4.8 0.00 0.00 0.00 61 1009.1
20260505161808 4 35 1.6 9.7 0.00 0.00 0.00 65 1008.8
20260505161305 5 79 4.8 11.3 0.00 0.00 0.00 66 1009.1
20260505160802 5 111 9.7 12.9 0.00 0.00 0.00 69 1009.2
20260505160300 5 179 4.8 11.3 0.00 0.00 0.00 69 1009.2
20260505153238 5 340 0.0 3.2 0.00 0.00 0.00 71 1009.2
20260505152735 5 41 1.6 4.8 0.00 0.00 0.00 73 1008.9
20260505152231 5 304 1.6 3.2 0.00 0.00 0.00 74 1009.3
20260505151726 4 272 0.0 1.6 0.00 0.00 0.00 75 1009.3
20260505151223 4 293 3.2 3.2 0.00 0.00 0.00 74 1009.4
20260505150720 3 355 0.0 0.0 0.00 0.00 0.00 77 1009.5
20260505150217 3 28 1.6 4.8 0.00 0.00 0.00 77 1009.5
20260505140645 3 260 4.8 6.4 0.00 0.00 0.00 86 1009.7
20260505140142 3 209 1.6 6.4 0.00 0.00 0.00 86 1009.7
20260505130106 2 173 3.2 6.4 0.00 0.00 0.00 91 1009.3
20260505124555 2 221 4.8 6.4 0.00 0.00 0.00 91 1009.1
20260505124052 2 180 3.2 6.4 0.00 0.00 0.00 91 1009.3
20260505123548 2 291 3.2 4.8 0.00 0.00 0.00 91 1009.4
20260505123045 2 233 3.2 3.2 0.00 0.00 0.00 91 1009.3
20260505122542 2 186 3.2 6.4 0.00 0.00 0.00 91 1009.3
20260505122039 2 282 1.6 3.2 0.00 0.00 0.00 91 1009.5
20260505121535 2 257 3.2 4.8 0.00 0.00 0.00 90 1009.3
20260505121032 2 205 3.2 4.8 0.00 0.00 0.00 90 1009.1
20260505120528 2 233 6.4 9.7 0.00 0.00 0.00 90 1009.2
20260505120024 2 209 3.2 9.7 0.00 0.00 0.00 89 1009.2
20260505115518 2 305 0.0 4.8 0.00 0.00 0.00 89 1009.2
20260505115017 2 215 3.2 4.8 0.00 0.00 0.00 89 1009.2
20260505114513 2 208 1.6 4.8 0.00 0.00 0.00 89 1009.1
20260505114009 2 217 4.8 6.4 0.00 0.00 0.00 89 1009.4
20260505113506 2 242 3.2 4.8 0.00 0.00 0.00 89 1009.2
20260505113002 2 262 4.8 6.4 0.00 0.00 0.00 89 1009.2
20260505112458 2 227 3.2 3.2 0.00 0.00 0.00 89 1009.1
20260505111955 2 216 3.2 4.8 0.00 0.00 0.00 89 1009.1
20260505111450 2 243 1.6 3.2 0.00 0.00 0.00 89 1009.2
20260505110947 2 48 1.6 3.2 0.00 0.00 0.00 89 1009.2
20260505110444 2 172 1.6 3.2 0.00 0.00 0.00 89 1008.9
20260505101914 2 50 6.4 11.3 0.00 0.00 0.00 87 1008.9
20260505101409 2 45 11.3 12.9 0.00 0.00 0.00 87 1009.1
20260505100905 2 58 6.4 11.3 0.00 0.00 0.00 87 1009.1
20260505100402 2 40 9.7 12.9 0.00 0.00 0.00 87 1009.1
20260505095857 2 60 9.7 14.5 0.00 0.00 0.00 87 1008.8
20260505095355 2 54 11.3 16.1 0.00 0.00 0.00 86 1008.9
20260505094851 2 76 8.0 17.7 0.00 0.00 0.00 86 1008.9
20260505094348 2 69 12.9 14.5 0.00 0.00 0.00 86 1009.1
20260505093844 2 56 9.7 25.7 0.00 0.00 0.00 85 1008.9
20260505093341 3 35 17.7 20.9 0.00 0.00 0.00 85 1009.1
20260505092838 2 60 19.3 20.9 0.00 0.00 0.00 85 1009.1
20260505092337 2 60 12.9 14.5 0.00 0.00 0.00 85 1008.9
20260505091833 3 47 12.9 16.1 0.00 0.00 0.00 84 1009.3
20260505091332 3 21 20.9 24.1 0.00 0.00 0.00 83 1009.3
20260505090829 3 61 16.1 20.9 0.00 0.00 0.00 82 1009.1
20260505090327 3 55 17.7 20.9 0.00 0.00 0.00 82 1009.2
20260505085824 3 45 9.7 16.1 0.00 0.00 0.00 82 1009.2
20260505085322 3 69 12.9 16.1 0.00 0.00 0.00 82 1008.9
20260505084819 3 24 11.3 22.5 0.00 0.00 0.00 82 1009.2
20260505084318 3 75 9.7 22.5 0.00 0.00 0.00 82 1009.1
20260505083815 3 84 14.5 22.5 0.00 0.00 0.00 82 1009.2
20260505083312 3 62 11.3 17.7 0.00 0.00 0.00 83 1009.3
20260505082808 3 51 12.9 20.9 0.00 0.00 0.00 83 1009.3
20260505082305 3 51 14.5 17.7 0.00 0.00 0.00 83 1009.5
20260505081801 3 37 17.7 17.7 0.00 0.00 0.00 83 1009.4
20260505081258 3 26 12.9 20.9 0.00 0.00 0.00 83 1009.3
20260505080755 3 60 14.5 22.5 0.00 0.00 0.00 82 1009.4
20260505080251 3 57 17.7 24.1 0.00 0.00 0.00 81 1009.7
20260505075746 3 75 20.9 25.7 0.00 0.00 0.00 79 1009.5
20260505075244 4 79 8.0 14.5 0.00 0.00 0.00 76 1009.5
20260505074741 4 10 11.3 16.1 0.00 0.00 0.00 76 1009.3
20260505074238 3 68 4.8 9.7 0.00 0.00 0.00 77 1009.5
20260505073736 3 81 4.8 6.4 0.00 0.00 0.00 77 1009.3
20260505073233 3 85 6.4 9.7 0.00 0.00 0.00 77 1009.2
20260505072730 3 83 6.4 6.4 0.00 0.00 0.00 77 1009.3
20260505072226 3 102 6.4 11.3 0.00 0.00 0.00 77 1009.4
20260505071721 3 104 6.4 9.7 0.00 0.00 0.00 78 1009.3
20260505071219 3 100 6.4 12.9 0.00 0.00 0.00 78 1009.2
20260505070716 3 66 9.7 16.1 0.00 0.00 0.00 78 1009.3
20260505070212 4 61 14.5 17.7 0.00 0.00 0.00 78 1009.2
20260505065708 4 59 9.7 16.1 0.00 0.00 0.00 78 1009.3
20260505065205 3 82 14.5 20.9 0.00 0.00 0.00 78 1009.2
20260505064702 3 8 20.9 24.1 0.00 0.00 0.00 79 1009.3
20260505064200 4 43 17.7 22.5 0.00 0.00 0.00 78 1008.9
20260505063657 4 45 17.7 29.0 0.00 0.00 0.00 76 1009.2
20260505063153 5 15 24.1 27.4 0.00 0.00 0.00 73 1009.1
20260505062649 5 35 9.7 14.5 0.00 0.00 0.00 69 1009.2
20260505062147 5 46 8.0 14.5 0.00 0.00 0.00 68 1008.9
20260505061644 5 71 12.9 17.7 0.00 0.00 0.00 69 1008.9
20260505061143 5 58 14.5 20.9 0.00 0.00 0.00 70 1008.8
20260505060640 5 55 17.7 24.1 0.00 0.00 0.00 70 1008.9
20260505060136 5 44 27.4 35.4 0.00 0.00 0.00 69 1008.9
20260505055631 5 81 19.3 22.5 0.00 0.00 0.00 70 1008.9
20260505055129 5 63 19.3 29.0 0.00 0.00 0.00 69 1008.9
20260505054626 5 44 16.1 22.5 0.00 0.00 0.00 70 1009.1
20260505054124 5 47 17.7 27.4 0.00 0.00 0.00 70 1009.3
20260505053621 5 45 17.7 20.9 0.00 0.00 0.00 68 1008.9
20260505053117 5 56 17.7 27.4 0.00 0.00 0.00 67 1009.2
20260505052614 5 34 19.3 33.8 0.00 0.00 0.00 65 1008.8
20260505052112 6 53 14.5 20.9 0.00 0.00 0.00 64 1008.8
20260505051608 6 44 17.7 22.5 0.00 0.00 0.00 65 1008.9
20260505051107 5 81 17.7 24.1 0.00 0.00 0.00 66 1008.7
20260505050604 5 73 17.7 22.5 0.00 0.00 0.00 67 1008.6
20260505041532 7 71 20.9 25.7 0.00 0.00 0.00 50 1007.8
20260505041030 7 53 14.5 25.7 0.00 0.00 0.00 50 1008.0
20260505040527 7 47 12.9 16.1 0.00 0.00 0.00 51 1007.9
20260505040024 8 19 14.5 17.7 0.00 0.00 0.00 51 1007.9
20260505035520 8 34 19.3 24.1 0.00 0.00 0.00 51 1007.8
20260505035017 8 27 16.1 24.1 0.00 0.00 0.00 51 1007.8
20260505034513 7 27 19.3 22.5 0.00 0.00 0.00 53 1007.3
20260505034010 7 23 14.5 22.5 0.00 0.00 0.00 54 1007.5
20260505033507 7 20 19.3 25.7 0.00 0.00 0.00 55 1007.4
20260505033005 7 21 16.1 29.0 0.00 0.00 0.00 57 1007.3
20260505032502 7 41 17.7 27.4 0.00 0.00 0.00 60 1007.0
20260505031959 7 30 27.4 35.4 0.00 0.00 0.00 60 1007.1
20260505031456 7 26 30.6 48.3 0.00 0.00 0.00 60 1006.7
20260505030952 8 28 19.3 30.6 0.00 0.00 0.00 53 1007.0
20260505030449 8 27 20.9 37.0 0.00 0.00 0.00 51 1006.6
20260505025944 9 31 24.1 37.0 0.00 0.00 0.00 52 1006.4
20260505025442 9 18 22.5 25.7 0.00 0.00 0.00 51 1006.5
20260505024940 9 39 24.1 29.0 0.00 0.00 0.00 51 1006.4
20260505024437 9 31 27.4 29.0 0.00 0.00 0.00 50 1006.0
20260505023934 9 58 22.5 30.6 0.00 0.00 0.00 52 1006.0
20260505023431 9 35 19.3 33.8 0.00 0.00 0.00 53 1005.8
20260505022928 10 27 29.0 37.0 0.00 0.00 0.00 54 1005.9
20260505022426 10 40 29.0 35.4 0.00 0.00 0.00 52 1005.7
20260505021923 10 40 27.4 38.6 0.00 0.00 0.00 50 1005.5
20260505021419 10 10 24.1 35.4 0.00 0.00 0.00 50 1005.3
20260505020915 10 12 20.9 38.6 0.00 0.00 0.00 51 1005.4
20260505020410 11 25 20.9 37.0 0.00 0.00 0.00 48 1005.2
20260505015908 11 28 24.1 30.6 0.00 0.00 0.00 49 1005.1
20260505015405 11 48 32.2 38.6 0.00 0.00 0.00 47 1005.1
20260505014902 11 15 25.7 30.6 0.00 0.00 0.00 49 1004.8
20260505014359 11 61 19.3 27.4 0.00 0.00 0.00 49 1005.0
20260505013856 11 13 24.1 30.6 0.00 0.00 0.00 48 1004.7
20260505013353 11 29 24.1 37.0 0.00 0.00 0.00 48 1005.0
20260505012851 11 54 24.1 33.8 0.00 0.00 0.00 47 1005.1
20260505012349 12 47 30.6 38.6 0.00 0.00 0.00 46 1004.8
20260505011844 12 36 20.9 35.4 0.00 0.00 0.00 47 1005.1
20260505011341 12 14 22.5 35.4 0.00 0.00 0.00 47 1005.0
20260505010837 12 39 27.4 35.4 0.00 0.00 0.00 46 1004.5
20260505010333 12 27 24.1 35.4 0.00 0.00 0.00 46 1004.6
20260505005830 12 38 24.1 37.0 0.00 0.00 0.00 45 1004.7
20260505005327 13 30 27.4 33.8 0.00 0.00 0.00 45 1005.0
20260505004825 12 36 25.7 35.4 0.00 0.00 0.00 45 1004.8
20260505004320 12 32 27.4 30.6 0.00 0.00 0.00 47 1004.7
20260505003818 12 13 24.1 29.0 0.00 0.00 0.00 44 1004.5
20260505003315 12 36 22.5 33.8 0.00 0.00 0.00 45 1004.8
20260505002811 12 35 24.1 33.8 0.00 0.00 0.00 45 1004.8
20260505002308 13 58 24.1 30.6 0.00 0.00 0.00 44 1004.7
20260505001807 13 45 19.3 33.8 0.00 0.00 0.00 45 1004.5
20260505001303 13 22 25.7 33.8 0.00 0.00 0.00 44 1004.5
20260505000800 13 29 25.7 35.4 0.00 0.00 0.00 43 1004.4
20260505000258 13 44 30.6 37.0 0.00 0.00 0.00 41 1004.3
20260504235754 13 20 32.2 35.4 0.00 0.00 0.00 40 1004.1
20260504235251 14 29 22.5 33.8 0.00 0.00 0.00 40 1004.0
20260504234748 14 41 19.3 37.0 0.00 0.00 0.00 40 1004.3
20260504234246 13 32 17.7 25.7 0.00 0.00 0.00 39 1004.4
20260504233742 15 41 22.5 30.6 0.00 0.00 0.00 39 1004.0
20260504233237 15 56 30.6 37.0 0.00 0.00 0.00 38 1003.7
20260504232735 15 25 30.6 38.6 0.00 0.00 0.00 38 1003.8
20260504232232 15 56 16.1 22.5 0.00 0.00 0.00 37 1004.1
20260504231729 15 50 17.7 24.1 0.00 0.00 0.00 38 1004.3
20260504231225 15 15 12.9 16.1 0.00 0.00 0.00 39 1004.3
20260504230721 15 17 14.5 20.9 0.00 0.00 0.00 40 1004.1
20260504230220 15 12 16.1 17.7 0.00 0.00 0.00 38 1004.0
20260504225718 15 43 17.7 22.5 0.00 0.00 0.00 39 1003.9
20260504225214 15 41 17.7 25.7 0.00 0.00 0.00 39 1004.1
20260504224711 15 23 19.3 29.0 0.00 0.00 0.00 39 1004.1
20260504224209 15 49 20.9 22.5 0.00 0.00 0.00 39 1004.1
20260504223705 15 54 22.5 25.7 0.00 0.00 0.00 38 1003.8
20260504223200 15 29 20.9 30.6 0.00 0.00 0.00 38 1004.0
20260504222658 15 51 22.5 35.4 0.00 0.00 0.00 37 1003.8
20260504222154 15 43 19.3 30.6 0.00 0.00 0.00 39 1004.0
20260504221652 15 351 17.7 25.7 0.00 0.00 0.00 38 1004.0
20260504221149 16 67 17.7 29.0 0.00 0.00 0.00 36 1004.1
20260504220645 16 75 20.9 35.4 0.00 0.00 0.00 37 1004.1
20260504220143 16 80 11.3 14.5 0.00 0.00 0.00 34 1004.3
20260504215639 16 71 17.7 29.0 0.00 0.00 0.00 34 1004.1
20260504215136 16 51 9.7 11.3 0.00 0.00 0.00 34 1004.1
20260504214632 15 57 16.1 17.7 0.00 0.00 0.00 34 1004.4
20260504214130 16 31 11.3 14.5 0.00 0.00 0.00 34 1004.4
20260504213625 15 49 14.5 17.7 0.00 0.00 0.00 35 1004.1
20260504213122 16 73 17.7 25.7 0.00 0.00 0.00 36 1004.3
20260504212618 16 34 9.7 12.9 0.00 0.00 0.00 34 1004.4
20260504212115 16 45 20.9 24.1 0.00 0.00 0.00 35 1004.3
20260504211613 16 26 14.5 16.1 0.00 0.00 0.00 37 1004.8
20260504211109 16 52 11.3 24.1 0.00 0.00 0.00 35 1004.7
20260504210607 15 15 17.7 27.4 0.00 0.00 0.00 36 1004.5
20260504205601 15 82 24.1 27.4 0.00 0.00 0.00 36 1004.6
20260504205058 15 36 14.5 16.1 0.00 0.00 0.00 38 1004.8
20260504204556 15 61 14.5 22.5 0.00 0.00 0.00 37 1005.1
20260504204055 15 67 20.9 27.4 0.00 0.00 0.00 36 1005.0
20260504203553 16 57 17.7 24.1 0.00 0.00 0.00 36 1004.7
20260504203050 15 20 17.7 24.1 0.00 0.00 0.00 36 1004.7
20260504202545 15 80 24.1 30.6 0.00 0.00 0.00 36 1004.7
20260504202042 15 67 20.9 30.6 0.00 0.00 0.00 36 1004.7
20260504201540 15 62 25.7 33.8 0.00 0.00 0.00 36 1004.6
20260504201037 15 54 22.5 25.7 0.00 0.00 0.00 36 1004.6
20260504200533 15 37 16.1 22.5 0.00 0.00 0.00 37 1005.0
20260504200031 15 66 20.9 29.0 0.00 0.00 0.00 37 1005.2
20260504195526 14 57 20.9 25.7 0.00 0.00 0.00 38 1005.0
20260504195023 15 32 25.7 29.0 0.00 0.00 0.00 37 1005.4
20260504194520 15 80 17.7 29.0 0.00 0.00 0.00 36 1005.4
20260504194015 15 39 17.7 27.4 0.00 0.00 0.00 35 1005.3
20260504193512 15 65 12.9 17.7 0.00 0.00 0.00 35 1005.2
20260504193011 15 63 14.5 20.9 0.00 0.00 0.00 37 1005.3
20260504192509 15 53 19.3 27.4 0.00 0.00 0.00 36 1005.2
20260504192007 15 54 24.1 30.6 0.00 0.00 0.00 37 1005.1
20260504191504 15 56 16.1 25.7 0.00 0.00 0.00 37 1005.4
20260504191000 15 68 24.1 27.4 0.00 0.00 0.00 37 1005.4
20260504190455 15 40 22.5 29.0 0.00 0.00 0.00 36 1005.5
20260504185952 14 83 22.5 25.7 0.00 0.00 0.00 35 1005.8
20260504185449 15 53 19.3 27.4 0.00 0.00 0.00 37 1005.8
20260504184946 15 76 11.3 14.5 0.00 0.00 0.00 35 1005.8